Carbondale, IL

3:48 PM CST on December 06, 2019 (GMT -0600)
Southern Illinois

Weather History for KMDH - October, 2019

Change the Weather History Date:

Tuesday, October 15, 2019

  Actual Average Record
Temperature  
Mean Temperature 56 °F -  
Max Temperature 69 °F 71 °F 91 °F (1938)
Min Temperature 45 °F 42 °F 24 °F (1939)
Degree Days  
Heating Degree Days 8    
Growing Degree Days 6 (Base 50)    
Moisture  
Dew Point 54 °F    
Average Humidity 82    
Maximum Humidity 93    
Minimum Humidity 50    
Precipitation  
Precipitation 0.00 in - - ()
Sea Level Pressure  
Sea Level Pressure 29.92 in    
Wind  
Wind Speed 5 mph (SSW)    
Max Wind Speed 16 mph    
Max Gust Speed 29 mph    
Visibility 9 miles    
Events Rain    
Averages and records for this station are not official NWS values.
T = Trace of Precipitation, MM = Missing Value Source: NWS Daily Summary

Daily Weather History Graph

Daily Weather History Graph

Search for Another Location

Airport or City:

Astronomy

Oct. 15, 2019 Rise Set
Actual Time 7:05 AM CDT 6:19 PM CDT
Civil Twilight 6:38 AM CDT 6:46 PM CDT
Nautical Twilight 6:08 AM CDT 7:16 PM CDT
Astronomical Twilight 5:37 AM CDT 7:46 PM CDT
Moon 7:41 PM CDT (10/15) 8:34 AM CDT (10/15)
Length of Visible Light 12h 07m
Length of Day
11h 14m
Full, 97% of the Moon is Illuminated
Oct 15
Full
Oct 21
Last Quarter
Oct 27
New
Nov 4
First Quarter
Nov 12
Full

Hourly Weather History & Observations

Time (CDT) Temp. Windchill Dew Point Humidity Pressure Visibility Wind Dir Wind Speed Gust Speed Precip Events Conditions
12:52 AM 46.0 °F - 44.1 °F 93% 30.04 in 10.0 mi Calm Calm - N/A   Clear
1:52 AM 45.0 °F - 43.0 °F 93% 30.03 in 10.0 mi Calm Calm - N/A   Clear
2:52 AM 45.0 °F 41.8 °F 43.0 °F 93% 30.02 in 10.0 mi SSE 5.8 mph - N/A   Clear
3:52 AM 46.0 °F 43.9 °F 44.1 °F 93% 30.00 in 10.0 mi South 4.6 mph - N/A   Clear
4:52 AM 48.0 °F - 45.0 °F 89% 30.00 in 10.0 mi Calm Calm - N/A   Clear
5:52 AM 48.0 °F - 46.0 °F 93% 29.99 in 10.0 mi South 9.2 mph - N/A   Clear
6:52 AM 50.0 °F - 46.9 °F 89% 29.99 in 10.0 mi SSE 5.8 mph - N/A   Clear
7:52 AM 53.1 °F - 50.0 °F 89% 29.97 in 10.0 mi SSE 4.6 mph - N/A   Clear
8:31 AM 57.9 °F - 53.1 °F 84% 29.97 in 10.0 mi South 8.1 mph - N/A   Mostly Cloudy
8:52 AM 60.1 °F - 53.1 °F 78% 29.97 in 10.0 mi South 8.1 mph - N/A   Overcast
9:52 AM 62.1 °F - 53.1 °F 72% 29.97 in 10.0 mi SSW 12.7 mph - N/A   Overcast
10:52 AM 64.9 °F - 54.0 °F 68% 29.95 in 10.0 mi SSW 9.2 mph - N/A   Overcast
11:52 AM 66.9 °F - 55.0 °F 66% 29.94 in 9.0 mi West 8.1 mph - N/A   Overcast
12:52 PM 68.0 °F - 55.9 °F 65% 29.92 in 10.0 mi SSW 9.2 mph - N/A   Overcast
1:52 PM 68.0 °F - 57.9 °F 70% 29.88 in 10.0 mi SSW 10.4 mph - N/A   Overcast
2:52 PM 68.0 °F - 59.0 °F 73% 29.86 in 10.0 mi South 10.4 mph - N/A   Overcast
3:52 PM 66.9 °F - 59.0 °F 76% 29.86 in 10.0 mi SSW 9.2 mph - N/A   Overcast
4:13 PM 66.9 °F - 59.0 °F 76% 29.86 in 10.0 mi SSW 8.1 mph - N/A   Overcast
4:52 PM 66.0 °F - 61.0 °F 84% 29.86 in 9.0 mi SSW 10.4 mph - N/A   Overcast
5:25 PM 66.0 °F - 61.0 °F 84% 29.86 in 8.0 mi South 8.1 mph - N/A   Overcast
5:52 PM 66.0 °F - 61.0 °F 84% 29.85 in 8.0 mi SSW 4.6 mph - N/A   Overcast
6:25 PM 64.9 °F - 62.1 °F 90% 29.86 in 9.0 mi Calm Calm - 0.00 in   Overcast
6:52 PM 63.0 °F - 60.1 °F 90% 29.85 in 8.0 mi SSE 3.5 mph - 0.00 in   Mostly Cloudy
7:52 PM 63.0 °F - 61.0 °F 93% 29.84 in 8.0 mi NW 3.5 mph - N/A   Overcast
8:52 PM 60.1 °F - 57.9 °F 93% 29.85 in 5.0 mi WSW 3.5 mph - N/A   Partly Cloudy
9:52 PM 64.0 °F - 62.1 °F 93% 29.86 in 9.0 mi WNW 5.8 mph - 0.00 in Rain Light Rain
10:52 PM 64.0 °F - 54.0 °F 70% 29.88 in 10.0 mi NW 16.1 mph 26.5 mph 0.00 in   Overcast
11:52 PM 61.0 °F - 42.1 °F 50% 29.91 in 10.0 mi NNW 12.7 mph 28.8 mph N/A   Overcast